Date String (YYYY-MM-DD hh:mm:ss) UTC,Instrument flags,absolute air pressure of the measurement (hPa),sample flow rate (lpm),inlet stack bypass flow (lpm),air temperature of the measurement (°C),ambient temperature measured by the external sensor (°C),aerosol sample conditioner tube jacket temperature (°C),OPC LED temperature (°C),internal box temperature (°C),relative humidity of the measurement (%),span deviation,mass concentration of particles derived from Lorenz-Mie calculation of OPC scattering (μg/m³),mass concentration of particles derived from Lorenz-Mie calculation of OPC scattering (μg/m³),mass concentration of particles derived from Lorenz-Mie calculation of OPC scattering (μg/m³)
DateTimeUTC,F1_M11,P_M11,Q1_M11,Q2_M11,T1_M11,T2_M11,T3_M11,T4_M11,T5_M11,U1_M11,ZSPAN_M11,X2_M11,X0_M11,X1_M11
2024-03-02 01:00:00,SystemResetWarning,0821.0,4.99,000.00,025.6,024.7,000.0,034.1,027.4,09.0,0000.0,0001.92,0004.52,0001.14
2024-03-02 01:01:00,SystemResetWarning,0821.1,5.00,000.00,025.6,024.7,000.0,034.1,027.4,09.0,0000.0,0001.91,0004.83,0001.13
2024-03-02 01:02:00,SystemResetWarning,0821.3,5.00,000.00,025.6,024.7,000.0,034.1,027.4,09.0,0000.0,0001.92,0004.89,0001.13
2024-03-02 01:03:00,SystemResetWarning,0821.2,5.00,000.00,025.6,024.7,000.0,034.1,027.4,09.0,0000.0,0001.89,0004.69,0001.13
2024-03-02 01:04:00,SystemResetWarning,0821.2,5.00,000.00,025.6,024.7,000.0,034.1,027.4,09.0,0000.0,0001.91,0005.20,0001.15
2024-03-02 01:05:00,SystemResetWarning,0821.2,5.00,000.00,025.6,024.7,000.0,034.1,027.4,09.0,0000.0,0001.93,0005.28,0001.17
2024-03-02 01:06:00,SystemResetWarning,0821.2,5.00,000.00,025.6,024.7,000.0,034.1,027.4,09.0,0000.0,0001.94,0005.29,0001.17
2024-03-02 01:07:00,SystemResetWarning,0821.2,5.00,000.00,025.6,024.7,000.0,034.1,027.4,09.0,0000.0,0001.97,0005.48,0001.18
2024-03-02 01:08:00,SystemResetWarning,0821.2,5.00,000.00,025.6,024.7,000.0,034.1,027.4,09.0,0000.0,0001.95,0006.50,0001.19
2024-03-02 01:09:00,SystemResetWarning,0821.3,5.00,000.00,025.6,024.7,000.0,034.1,027.4,09.1,0000.0,0002.01,0007.37,0001.20
2024-03-02 01:10:00,SystemResetWarning,0821.3,4.99,000.00,025.6,024.7,000.0,034.1,027.4,09.0,0000.0,0002.02,0008.02,0001.20
2024-03-02 01:11:00,SystemResetWarning,0821.3,5.01,000.00,025.6,024.7,000.0,034.1,027.4,09.0,0000.0,0002.03,0008.09,0001.19
2024-03-02 01:12:00,SystemResetWarning,0821.3,5.00,000.00,025.6,024.7,000.0,034.1,027.4,09.0,0000.0,0002.09,0007.95,0001.20
2024-03-02 01:13:00,SystemResetWarning,0821.3,5.00,000.00,025.6,024.7,000.0,034.1,027.4,09.0,0000.0,0002.17,0008.41,0001.22
2024-03-02 01:14:00,SystemResetWarning,0821.4,5.00,000.00,025.6,024.7,000.0,034.1,027.4,09.1,0000.0,0002.18,0008.47,0001.23
2024-03-02 01:15:00,SystemResetWarning,0821.8,4.99,000.00,025.6,024.7,000.0,034.1,027.4,09.0,0000.0,0002.16,0008.27,0001.22
2024-03-02 01:16:00,SystemResetWarning,0821.7,5.00,000.00,025.6,024.7,000.0,034.1,027.4,09.0,0000.0,0002.15,0007.97,0001.22
2024-03-02 01:17:00,SystemResetWarning,0821.4,5.00,000.00,025.6,024.7,000.0,034.1,027.4,09.0,0000.0,0002.14,0007.94,0001.21
2024-03-02 01:18:00,SystemResetWarning,0821.8,5.00,000.00,025.6,024.7,000.0,034.1,027.4,09.1,0000.0,0002.14,0007.96,0001.20
2024-03-02 01:19:00,SystemResetWarning,0821.5,5.01,000.00,025.6,024.7,000.0,034.1,027.3,09.1,0000.0,0002.11,0007.53,0001.18
2024-03-02 01:20:00,SystemResetWarning,0821.4,5.00,000.00,025.5,024.7,000.0,034.1,027.3,09.1,0000.0,0002.11,0007.03,0001.17
2024-03-02 01:21:00,SystemResetWarning,0821.3,5.00,000.00,025.5,024.7,000.0,034.1,027.3,09.1,0000.0,0002.06,0005.74,0001.17
2024-03-02 01:22:00,SystemResetWarning,0821.3,5.00,000.00,025.5,024.7,000.0,034.1,027.3,09.1,0000.0,0002.05,0005.64,0001.16
2024-03-02 01:23:00,SystemResetWarning,0821.5,5.00,000.00,025.6,024.6,000.0,034.1,027.4,09.1,0000.0,0002.00,0005.84,0001.16
2024-03-02 01:24:00,SystemResetWarning,0821.8,5.00,000.00,025.6,024.6,000.0,034.1,027.4,09.2,0000.0,0002.01,0005.32,0001.17
2024-03-02 01:25:00,SystemResetWarning,0821.6,5.00,000.00,025.6,024.6,000.0,034.1,027.4,09.2,0000.0,0001.98,0005.03,0001.17
2024-03-02 01:26:00,SystemResetWarning,0821.4,5.00,000.00,025.6,024.7,000.0,034.1,027.4,09.2,0000.0,0002.04,0005.10,0001.18
2024-03-02 01:27:00,SystemResetWarning,0821.3,5.00,000.00,025.6,024.7,000.0,034.1,027.4,09.1,0000.0,0002.09,0005.23,0001.18
2024-03-02 01:28:00,SystemResetWarning,0821.3,5.00,000.00,025.5,024.7,000.0,034.1,027.4,09.1,0000.0,0002.16,0006.05,0001.18
2024-03-02 01:29:00,SystemResetWarning,0821.3,5.00,000.00,025.5,024.6,000.0,034.1,027.4,09.1,0000.0,0002.21,0006.47,0001.19
2024-03-02 01:30:00,SystemResetWarning,0821.4,4.99,000.00,025.5,024.6,000.0,034.1,027.4,09.1,0000.0,0002.24,0006.47,0001.20
2024-03-02 01:31:00,SystemResetWarning,0821.4,5.00,000.00,025.5,024.6,000.0,034.1,027.4,09.1,0000.0,0002.26,0006.29,0001.22
2024-03-02 01:32:00,SystemResetWarning,0821.3,5.00,000.00,025.5,024.6,000.0,034.1,027.4,09.1,0000.0,0002.35,0006.41,0001.22
2024-03-02 01:33:00,SystemResetWarning,0821.7,5.00,000.00,025.5,024.6,000.0,034.1,027.4,09.1,0000.0,0002.48,0006.61,0001.22
2024-03-02 01:34:00,SystemResetWarning,0821.9,5.00,000.00,025.5,024.6,000.0,034.1,027.4,09.1,0000.0,0002.50,0006.56,0001.23
2024-03-02 01:35:00,SystemResetWarning,0821.9,5.01,000.00,025.5,024.6,000.0,034.1,027.3,09.1,0000.0,0002.47,0006.22,0001.24
2024-03-02 01:36:00,SystemResetWarning,0822.0,5.01,000.00,025.5,024.6,000.0,034.1,027.3,09.1,0000.0,0002.45,0006.20,0001.25
2024-03-02 01:37:00,SystemResetWarning,0822.0,5.00,000.00,025.5,024.5,000.0,034.1,027.3,09.1,0000.0,0002.47,0006.23,0001.25
2024-03-02 01:38:00,SystemResetWarning,0821.9,5.00,000.00,025.5,024.5,000.0,034.1,027.3,09.2,0000.0,0002.44,0006.11,0001.24
2024-03-02 01:39:00,SystemResetWarning,0822.0,4.99,000.00,025.5,024.5,000.0,034.0,027.3,09.2,0000.0,0002.42,0005.79,0001.24
2024-03-02 01:40:00,SystemResetWarning,0822.0,5.00,000.00,025.5,024.5,000.0,034.0,027.3,09.3,0000.0,0002.35,0005.05,0001.24
2024-03-02 01:41:00,SystemResetWarning,0822.0,5.00,000.00,025.5,024.5,000.0,034.0,027.3,09.2,0000.0,0002.32,0005.00,0001.23
2024-03-02 01:42:00,SystemResetWarning,0822.0,5.00,000.00,025.5,024.5,000.0,034.0,027.3,09.3,0000.0,0002.28,0005.03,0001.21
2024-03-02 01:43:00,SystemResetWarning,0821.9,5.01,000.00,025.5,024.5,000.0,034.0,027.3,09.3,0000.0,0002.21,0004.87,0001.20
2024-03-02 01:44:00,SystemResetWarning,0822.0,5.00,000.00,025.5,024.5,000.0,034.0,027.3,09.2,0000.0,0002.07,0004.30,0001.20
2024-03-02 01:45:00,SystemResetWarning,0822.0,4.98,000.00,025.5,024.5,000.0,034.0,027.3,09.3,0000.0,0002.06,0005.07,0001.20
2024-03-02 01:46:00,SystemResetWarning,0822.0,5.01,000.00,025.5,024.5,000.0,034.0,027.3,09.2,0000.0,0002.08,0005.35,0001.20
2024-03-02 01:47:00,SystemResetWarning,0821.5,5.00,000.00,025.4,024.5,000.0,034.0,027.3,09.3,0000.0,0002.10,0005.86,0001.19
2024-03-02 01:48:00,SystemResetWarning,0821.6,5.01,000.00,025.4,024.5,000.0,034.0,027.3,09.4,0000.0,0002.08,0005.96,0001.18
2024-03-02 01:49:00,SystemResetWarning,0821.6,4.99,000.00,025.4,024.5,000.0,034.0,027.3,09.5,0000.0,0002.08,0006.00,0001.17
2024-03-02 01:50:00,SystemResetWarning,0821.6,4.99,000.00,025.4,024.5,000.0,034.0,027.3,09.6,0000.0,0002.08,0006.01,0001.17
2024-03-02 01:51:00,SystemResetWarning,0821.5,5.00,000.00,025.4,024.5,000.0,034.0,027.3,09.6,0000.0,0002.06,0005.91,0001.17
2024-03-02 01:52:00,SystemResetWarning,0821.7,5.01,000.00,025.4,024.5,000.0,034.0,027.3,09.6,0000.0,0002.06,0005.84,0001.17
2024-03-02 01:53:00,SystemResetWarning,0821.5,5.01,000.00,025.4,024.5,000.0,034.0,027.3,09.7,0000.0,0002.18,0006.18,0001.17
2024-03-02 01:54:00,SystemResetWarning,0821.9,5.00,000.00,025.4,024.5,000.0,034.0,027.3,09.7,0000.0,0002.23,0006.73,0001.18
2024-03-02 01:55:00,SystemResetWarning,0821.8,5.00,000.00,025.4,024.5,000.0,034.0,027.2,09.7,0000.0,0002.25,0007.75,0001.19
2024-03-02 01:56:00,SystemResetWarning,0821.5,5.00,000.00,025.4,024.5,000.0,034.0,027.2,09.8,0000.0,0002.26,0007.54,0001.19
2024-03-02 01:57:00,SystemResetWarning,0821.6,5.00,000.00,025.4,024.5,000.0,034.0,027.2,09.8,0000.0,0002.28,0007.51,0001.18
2024-03-02 01:58:00,SystemResetWarning,0821.6,5.00,000.00,025.4,024.5,000.0,034.0,027.2,09.8,0000.0,0002.22,0007.51,0001.18
2024-03-02 01:59:00,SystemResetWarning,0821.5,5.00,000.00,025.4,024.5,000.0,034.0,027.2,09.8,0000.0,0002.27,0007.50,0001.19
